MST,Max TemperatureF,Mean TemperatureF,Min TemperatureF,Max Dew PointF,MeanDew PointF,Min DewpointF,Max Humidity, Mean Humidity, Min Humidity, Max Sea Level PressureIn, Mean Sea Level PressureIn, Min Sea Level PressureIn, Max VisibilityMiles, Mean VisibilityMiles, Min VisibilityMiles, Max Wind SpeedMPH, Mean Wind SpeedMPH, Max Gust SpeedMPH,PrecipitationIn, CloudCover, Events, WindDirDegrees
2013-1-1,32,20,7,18,13,2,100,72,43,30.31,30.19,30.05,10,8,0,13,2,15,0.01,5,Fog-Snow,179
2013-1-2,37,20,2,6,3,0,83,53,23,30.44,30.34,30.14,10,10,9,12,5,17,0.00,1,,248
2013-1-3,39,21,3,2,-3,-10,69,43,16,30.51,30.40,30.20,10,10,9,12,5,14,0.00,0,,276
2013-1-4,51,26,1,-2,-6,-11,62,36,10,30.40,30.22,30.02,10,10,7,16,6,20,0.00,0,,295
2013-1-5,47,28,8,12,4,-7,64,44,23,30.48,30.30,30.07,10,10,10,15,5,20,0.00,0,,228
2013-1-6,47,24,1,8,3,-5,83,51,19,30.44,30.25,30.03,10,10,10,8,3,13,0.00,0,,318
2013-1-7,50,33,15,8,5,2,45,30,14,30.04,29.96,29.88,10,10,10,14,4,20,0.00,0,,294
2013-1-8,56,34,12,10,6,1,61,37,13,30.30,30.04,29.85,10,10,10,21,6,23,0.00,0,,140
2013-1-9,51,31,10,16,9,3,67,45,22,30.52,30.33,30.20,10,10,10,9,4,10,0.00,0,,110
2013-1-10,43,27,11,16,9,4,73,51,28,30.17,29.84,29.56,10,10,10,13,5,15,0.00,0,,284
2013-1-11,49,33,16,21,3,-13,56,35,14,29.86,29.50,29.35,10,7,0,48,21,62,0.00,2,Rain,254
2013-1-12,23,12,0,5,-2,-10,73,53,33,30.19,30.06,29.89,10,10,10,15,7,20,0.00,3,,94
2013-1-13,21,12,3,7,1,-4,72,59,45,30.30,30.19,30.00,10,9,2,13,5,18,T,5,Snow,121
2013-1-14,20,12,4,12,7,0,84,76,67,30.30,30.17,30.02,10,5,2,10,6,13,0.01,7,Snow,19
2013-1-15,33,13,-7,8,0,-9,87,54,20,30.38,30.29,30.22,10,9,6,8,3,9,T,4,,242
2013-1-16,55,36,17,17,11,3,57,40,22,30.44,30.29,30.15,10,10,10,15,6,18,0.00,1,,274
2013-1-17,48,28,8,17,11,2,73,51,29,30.60,30.45,30.32,10,10,9,9,3,12,0.00,0,,241
2013-1-18,63,37,11,10,1,-7,73,40,6,30.30,30.16,30.05,10,10,10,16,6,21,0.00,0,,266
2013-1-19,59,40,21,4,0,-6,35,23,10,30.28,30.18,30.03,10,10,10,21,7,25,0.00,0,,166
2013-1-20,57,34,10,8,3,-4,56,34,11,30.37,30.24,30.11,10,10,10,23,6,29,0.00,0,,68
2013-1-21,51,29,7,16,8,0,80,50,19,30.37,30.25,30.13,10,10,6,10,4,10,0.00,0,,290
2013-1-22,65,40,15,3,-3,-10,49,27,5,30.25,30.15,30.03,10,10,9,13,6,15,0.00,0,,141
2013-1-23,72,41,10,32,-4,-15,40,22,3,30.28,30.16,30.05,10,9,2,15,5,17,0.00,0,,98
2013-1-24,67,42,17,32,15,1,63,44,24,30.19,30.07,29.92,10,10,8,23,6,30,0.00,0,,65
2013-1-25,55,41,27,22,15,0,53,36,19,30.25,30.13,30.04,10,10,2,13,4,14,0.00,0,,353
2013-1-26,58,40,22,33,22,12,70,50,30,30.08,29.91,29.69,10,10,10,13,5,16,T,3,Rain,65
2013-1-27,66,44,21,30,24,17,88,54,20,29.77,29.71,29.62,10,10,10,14,4,20,0.00,0,,297
2013-1-28,64,44,23,28,21,14,78,48,17,29.71,29.60,29.45,10,9,2,39,11,48,0.00,1,,261
2013-1-29,32,26,20,25,21,14,88,78,68,30.03,29.75,29.61,10,6,0,18,7,22,0.19,7,Fog-Snow,26
2013-1-30,36,17,-2,22,10,-4,96,73,49,30.15,30.04,29.93,10,10,7,14,5,17,0.00,0,,322
2013-1-31,48,33,17,24,18,10,81,59,37,30.19,30.10,29.96,10,10,10,25,9,29,0.00,0,,33